QPF
0.00 0.00 0.00 0.00 0.00 0.00 0.00 0.00 0.00 0.00 0.00 0.00 0.00 0.00 0.00 0.00 0.00 0.00 0.01 0.00 0.00 0.00 0.00 0.00 0.00 0.00 0.00 0.00 0.00 0.00 0.00 0.00 0.00 0.00 0.00 0.00 0.00 0.00 0.00 0.00 0.00 0.00 0.00
0.00 0.00 0.00 0.00 0.00 0.00 0.00 0.00 0.00 0.00 0.00 0.00 0.00 0.00 0.00 0.00 0.00 0.02 0.01 0.03 0.02 0.00 0.00 0.00 0.00 0.00 0.00 0.00 0.00 0.00 0.00 0.00 0.00 0.00 0.00 0.00 0.00 0.00 0.00 0.00 0.00 0.00 0.00
0.00 0.00 0.00 0.00 0.00 0.00 0.00 0.00 0.00 0.00 0.00 0.00 0.00 0.00 0.00 0.00 0.00 0.01 0.03 0.00 0.00 0.00 0.00 0.00 0.00 0.00 0.00 0.00 0.00 0.00 0.00 0.00 0.00 0.00 0.00 0.00 0.00 0.00 0.00 0.00 0.00 0.00 0.00
0.00 0.00 0.00 0.00 0.00 0.00 0.00 0.00 0.00 0.00 0.00 0.00 0.00 0.00 0.00 0.00 0.00 0.00 0.01 0.01 0.00 0.00 0.00 0.00 0.00 0.00 0.00 0.00 0.00 0.00 0.00 0.00 0.00 0.00 0.00 0.00 0.00 0.00 0.00 0.00 0.00 0.00 0.00
0.00 0.00 0.00 0.00 0.00 0.00 0.00 0.00 0.00 0.00 0.00 0.00 0.00 0.00 0.00 0.00 0.00 0.00 0.00 0.00 0.00 0.00 0.00 0.00 0.01 0.00 0.00 0.00 0.00 0.00 0.00 0.00 0.00 0.00 0.00 0.00 0.00 0.00 0.00 0.00 0.00 0.00 0.00
0.00 0.00 0.00 0.00 0.00 0.00 0.00 0.00 0.00 0.00 0.00 0.00 0.00 0.00 0.00 0.00 0.00 0.00 0.00 0.00 0.00 0.00 0.00 0.04 0.05 0.00 0.00 0.00 0.00 0.00 0.00 0.00 0.00 0.00 0.00 0.00 0.00 0.00 0.00 0.00 0.00 0.01 0.00
0.00 0.00 0.00 0.00 0.00 0.00 0.00 0.00 0.00 0.00 0.00 0.00 0.00 0.00 0.00 0.00 0.00 0.00 0.00 0.00 0.00 0.00 0.00 0.00 0.00 0.00 0.00 0.00 0.00 0.00 0.00 0.00 0.00 0.00 0.00 0.00 0.00 0.00 0.00 0.00 0.00 0.01 0.02
0.00 0.00 0.00 0.00 0.00 0.00 0.00 0.00 0.00 0.00 0.00 0.00 0.00 0.00 0.00 0.00 0.00 0.00 0.00 0.00 0.00 0.00 0.00 0.00 0.00 0.00 0.00 0.00 0.00 0.00 0.00 0.00 0.00 0.00 0.00 0.00 0.00 0.00 0.00 0.01 0.02 0.02 0.01
0.00 0.00 0.00 0.00 0.00 0.00 0.00 0.00 0.00 0.00 0.00 0.00 0.00 0.00 0.00 0.00 0.00 0.00 0.00 0.00 0.00 0.00 0.00 0.00 0.00 0.00 0.00 0.00 0.00 0.00 0.00 0.00 0.00 0.00 0.00 0.00 0.00 0.00 0.00 0.00 0.01 0.02 0.01
0.00 0.00 0.00 0.00 0.00 0.00 0.00 0.00 0.00 0.00 0.00 0.00 0.00 0.00 0.00 0.00 0.00 0.00 0.00 0.00 0.00 0.00 0.00 0.00 0.00 0.00 0.00 0.00 0.00 0.00 0.00 0.00 0.00 0.00 0.00 0.00 0.00 0.01 0.00 0.00 0.00 0.01 0.02
0.00 0.00 0.00 0.00 0.00 0.00 0.00 0.00 0.00 0.00 0.00 0.00 0.00 0.00 0.00 0.00 0.00 0.00 0.00 0.00 0.00 0.00 0.00 0.00 0.00 0.00 0.00 0.00 0.00 0.00 0.00 0.00 0.00 0.00 0.00 0.00 0.00 0.00 0.00 0.00 0.00 0.01 0.00
0.00 0.00 0.00 0.00 0.00 0.00 0.00 0.00 0.00 0.00 0.00 0.00 0.00 0.00 0.00 0.00 0.00 0.00 0.00 0.00 0.00 0.00 0.00 0.00 0.00 0.00 0.00 0.00 0.00 0.00 0.00 0.00 0.00 0.00 0.00 0.00 0.00 0.00 0.00 0.00 0.00 0.01 0.00
0.00 0.00 0.00 0.00 0.00 0.00 0.00 0.00 0.00 0.00 0.00 0.00 0.00 0.00 0.00 0.00 0.00 0.00 0.00 0.00 0.00 0.00 0.00 0.00 0.00 0.00 0.00 0.00 0.00 0.00 0.00 0.00 0.00 0.00 0.00 0.00 0.00 0.00 0.00 0.00 0.00 0.00 0.00
0.00 0.00 0.00 0.00 0.00 0.00 0.00 0.00 0.00 0.00 0.00 0.00 0.00 0.00 0.00 0.00 0.00 0.00 0.00 0.00 0.00 0.00 0.00 0.00 0.00 0.00 0.00 0.00 0.00 0.00 0.00 0.00 0.00 0.00 0.00 0.00 0.00 0.00 0.00 0.00 0.00 0.00 0.00
0.00 0.00 0.00 0.00 0.00 0.00 0.00 0.00 0.00 0.00 0.00 0.00 0.00 0.00 0.00 0.00 0.00 0.00 0.00 0.00 0.00 0.00 0.00 0.00 0.00 0.00 0.00 0.00 0.00 0.00 0.00 0.00 0.00 0.00 0.00 0.00 0.00 0.00 0.00 0.00 0.00 0.00 0.00
0.00 0.00 0.00 0.00 0.00 0.00 0.00 0.00 0.00 0.00 0.00 0.00 0.00 0.00 0.00 0.00 0.00 0.00 0.00 0.00 0.00 0.00 0.00 0.00 0.00 0.00 0.00 0.00 0.00 0.00 0.00 0.00 0.00 0.00 0.00 0.00 0.00 0.00 0.00 0.00 0.00 0.00 0.00
0.00 0.00 0.00 0.00 0.00 0.00 0.00 0.00 0.00 0.00 0.00 0.00 0.00 0.00 0.00 0.00 0.00 0.00 0.00 0.00 0.00 0.00 0.00 0.00 0.00 0.00 0.00 0.00 0.00 0.00 0.00 0.00 0.00 0.00 0.00 0.00 0.00 0.00 0.00 0.00 0.00 0.00 0.00
0.00 0.00 0.00 0.00 0.00 0.00 0.00 0.00 0.00 0.00 0.00 0.00 0.00 0.00 0.00 0.00 0.00 0.00 0.00 0.00 0.00 0.00 0.00 0.00 0.00 0.00 0.00 0.00 0.00 0.00 0.00 0.00 0.00 0.00 0.00 0.00 0.00 0.00 0.00 0.00 0.00 0.00 0.00
0.00 0.00 0.00 0.00 0.00 0.00 0.00 0.00 0.00 0.00 0.00 0.00 0.00 0.00 0.00 0.00 0.00 0.00 0.00 0.00 0.00 0.00 0.00 0.00 0.00 0.00 0.00 0.00 0.00 0.00 0.00 0.00 0.00 0.00 0.00 0.00 0.00 0.00 0.01 0.00 0.00 0.00 0.00
0.00 0.00 0.00 0.00 0.00 0.00 0.00 0.00 0.00 0.00 0.00 0.00 0.00 0.00 0.00 0.00 0.00 0.00 0.00 0.00 0.00 0.00 0.00 0.00 0.00 0.00 0.00 0.00 0.00 0.00 0.00 0.00 0.00 0.00 0.00 0.00 0.00 0.00 0.00 0.00 0.00 0.00 0.00
0.00 0.00 0.00 0.00 0.00 0.00 0.00 0.00 0.00 0.00 0.00 0.00 0.00 0.00 0.00 0.00 0.00 0.00 0.00 0.00 0.00 0.00 0.00 0.00 0.00 0.00 0.00 0.00 0.00 0.00 0.00 0.00 0.00 0.00 0.00 0.00 0.00 0.00 0.00 0.00 0.00 0.00 0.00
0.00 0.00 0.00 0.00 0.00 0.00 0.00 0.00 0.01 0.01 0.01 0.00 0.00 0.00 0.00 0.00 0.00 0.00 0.00 0.00 0.00 0.00 0.00 0.00 0.00 0.00 0.00 0.00 0.00 0.00 0.00 0.00 0.00 0.00 0.00 0.00 0.00 0.00 0.00 0.00 0.00 0.00 0.00
0.00 0.00 0.00 0.00 0.00 0.00 0.00 0.00 0.00 0.00 0.00 0.01 0.01 0.00 0.00 0.00 0.00 0.00 0.00 0.00 0.00 0.00 0.00 0.00 0.00 0.00 0.00 0.00 0.00 0.00 0.00 0.00 0.00 0.00 0.00 0.00 0.00 0.00 0.00 0.00 0.00 0.00 0.00
0.00 0.00 0.00 0.00 0.00 0.00 0.00 0.00 0.00 0.00 0.00 0.00 0.00 0.00 0.00 0.00 0.00 0.00 0.00 0.00 0.00 0.00 0.00 0.00 0.00 0.00 0.00 0.00 0.00 0.00 0.00 0.00 0.00 0.00 0.00 0.00 0.00 0.00 0.00 0.00 0.00 0.00 0.00
0.00 0.00 0.00 0.00 0.00 0.00 0.00 0.00 0.00 0.00 0.00 0.00 0.00 0.00 0.01 0.01 0.01 0.00 0.00 0.00 0.00 0.00 0.00 0.00 0.00 0.00 0.00 0.00 0.00 0.00 0.00 0.00 0.00 0.00 0.00 0.00 0.00 0.00 0.00 0.00 0.00 0.00 0.00
0.00 0.00 0.00 0.00 0.00 0.00 0.00 0.00 0.00 0.00 0.00 0.00 0.00 0.01 0.01 0.01 0.01 0.01 0.00 0.00 0.00 0.00 0.00 0.00 0.00 0.00 0.00 0.00 0.00 0.00 0.00 0.00 0.00 0.00 0.00 0.00 0.00 0.00 0.00 0.00 0.00 0.00 0.00
MSLP
1017.85 1017.85 1018.02 1017.95 1017.99 1018.00 1017.90 1017.54 1017.35 1017.15 1016.72 1016.44 1016.14 1015.90 1015.61 1015.17 1014.63 1014.38 1013.83 1013.36 1013.20 1012.85 1012.61 1012.65 1012.46 1012.23 1012.52 1012.63 1012.74 1012.84 1012.97 1013.10 1012.98 1012.45 1012.27 1011.82 1011.64 1011.42 1011.25 1011.20 1011.34 1011.45 1011.42
1017.65 1017.79 1017.92 1017.88 1017.91 1017.89 1017.59 1017.24 1017.15 1016.86 1016.63 1016.38 1016.09 1015.70 1015.30 1014.88 1014.28 1014.02 1013.49 1013.07 1012.86 1012.48 1012.34 1012.15 1011.93 1011.85 1011.86 1011.82 1012.00 1012.07 1012.18 1012.19 1012.43 1012.27 1012.04 1011.82 1011.60 1011.23 1011.19 1011.25 1011.21 1011.07 1011.23
1017.53 1017.59 1017.63 1017.69 1017.62 1017.53 1017.30 1017.13 1016.97 1016.89 1016.62 1016.19 1015.82 1015.42 1015.04 1014.51 1013.93 1013.44 1013.32 1012.90 1012.53 1012.26 1012.10 1011.88 1011.52 1011.29 1011.21 1011.19 1011.21 1011.28 1011.42 1011.53 1011.71 1011.94 1011.79 1011.52 1011.34 1011.11 1011.08 1011.07 1011.06 1011.06 1010.96
1017.43 1017.50 1017.57 1017.45 1017.29 1017.25 1017.14 1017.09 1017.00 1016.85 1016.55 1016.02 1015.45 1015.15 1014.65 1014.08 1013.53 1012.77 1012.88 1012.77 1012.50 1012.05 1011.66 1011.24 1010.84 1010.68 1010.51 1010.38 1010.46 1010.55 1010.80 1011.05 1011.32 1011.53 1011.59 1011.56 1011.35 1011.02 1011.14 1011.18 1011.18 1011.05 1010.93
1017.34 1017.15 1017.16 1016.96 1016.90 1016.96 1017.03 1016.98 1016.86 1016.66 1016.26 1015.76 1015.26 1014.79 1014.40 1013.90 1013.25 1012.92 1012.55 1012.19 1011.90 1011.56 1011.08 1010.63 1010.07 1009.63 1009.53 1009.59 1009.81 1009.98 1010.28 1010.59 1010.91 1011.18 1011.34 1011.29 1011.13 1011.07 1010.99 1010.81 1010.99 1010.91 1010.75
1016.97 1016.80 1016.56 1016.59 1016.69 1016.73 1016.81 1016.76 1016.58 1016.23 1015.91 1015.49 1014.97 1014.66 1014.24 1013.62 1013.06 1012.62 1012.39 1012.16 1011.73 1011.35 1010.74 1010.17 1009.71 1009.17 1009.15 1009.13 1009.23 1009.39 1009.62 1010.06 1010.43 1010.77 1010.84 1010.81 1010.56 1010.49 1010.38 1010.41 1010.58 1010.74 1010.80
1016.60 1016.38 1016.16 1016.31 1016.54 1016.51 1016.46 1016.44 1016.22 1015.93 1015.61 1015.28 1014.81 1014.35 1014.00 1013.39 1012.71 1012.33 1012.02 1011.73 1011.43 1011.00 1010.48 1010.25 1009.90 1009.62 1009.53 1009.53 1009.49 1009.53 1009.53 1009.53 1009.56 1009.85 1010.12 1010.08 1009.96 1009.73 1009.79 1010.04 1010.16 1010.22 1010.43
1016.16 1016.05 1015.85 1015.92 1016.13 1016.11 1016.16 1016.08 1015.75 1015.50 1015.30 1015.00 1014.49 1014.04 1013.63 1013.06 1012.52 1012.01 1011.55 1011.29 1010.87 1010.45 1010.19 1010.07 1010.07 1010.02 1009.96 1009.80 1009.72 1009.49 1009.39 1009.40 1009.19 1009.48 1009.52 1009.46 1009.37 1009.29 1009.42 1009.29 1009.50 1009.94 1010.31
1015.69 1015.47 1015.33 1015.31 1015.53 1015.66 1015.71 1015.52 1015.16 1015.09 1014.82 1014.48 1014.03 1013.74 1013.34 1012.73 1012.24 1011.91 1011.59 1011.04 1010.38 1010.16 1009.98 1010.10 1010.23 1010.24 1010.03 1009.89 1009.83 1009.77 1009.78 1009.58 1009.35 1009.27 1009.12 1009.00 1008.92 1008.95 1009.00 1009.15 1009.48 1009.74 1010.13
1014.91 1014.57 1014.46 1014.49 1014.81 1014.96 1014.95 1014.97 1014.64 1014.41 1014.29 1013.98 1013.57 1013.27 1012.98 1012.61 1011.98 1011.70 1011.52 1011.10 1010.52 1010.45 1010.41 1010.34 1010.22 1010.22 1010.19 1010.00 1009.91 1009.98 1009.97 1009.80 1009.52 1009.38 1009.35 1009.23 1009.05 1008.91 1008.91 1009.00 1009.25 1009.68 1010.09
1013.82 1013.78 1013.85 1013.88 1013.95 1013.93 1014.18 1014.22 1014.12 1013.97 1013.85 1013.66 1013.40 1013.00 1012.75 1012.37 1011.96 1011.62 1011.41 1011.18 1010.84 1010.82 1010.62 1010.42 1010.30 1010.28 1010.20 1010.19 1010.12 1010.04 1009.95 1009.77 1009.69 1009.68 1009.59 1009.42 1009.34 1009.30 1009.24 1009.31 1009.49 1009.57 1010.05
1013.22 1013.39 1013.34 1013.17 1013.22 1013.23 1013.63 1013.47 1013.51 1013.53 1013.42 1013.27 1013.10 1012.70 1012.47 1011.97 1011.75 1011.60 1011.39 1011.27 1010.93 1010.86 1010.69 1010.43 1010.22 1010.17 1010.17 1010.14 1009.99 1009.88 1009.79 1009.75 1009.81 1009.93 1009.84 1009.66 1009.61 1009.70 1009.67 1009.68 1009.79 1009.81 1009.88
1012.70 1012.71 1012.52 1012.46 1012.52 1012.56 1013.01 1012.96 1012.96 1012.74 1012.87 1012.77 1012.82 1012.61 1012.16 1011.80 1011.49 1011.40 1011.27 1010.98 1010.67 1010.83 1010.48 1010.34 1010.15 1010.02 1009.97 1009.82 1009.60 1009.54 1009.66 1009.90 1009.89 1009.91 1009.87 1009.74 1009.66 1009.71 1009.79 1010.00 1010.16 1010.13 1010.44
1011.97 1011.84 1011.68 1011.88 1011.82 1011.92 1012.01 1012.13 1012.12 1011.96 1012.08 1012.13 1012.20 1012.12 1011.72 1011.49 1011.38 1011.11 1011.05 1010.85 1010.73 1010.63 1010.54 1010.40 1010.20 1010.08 1009.98 1009.83 1009.59 1009.49 1009.51 1009.65 1009.67 1009.81 1009.90 1009.82 1009.92 1010.18 1010.31 1010.31 1010.70 1010.88 1011.08
1011.87 1011.59 1011.16 1010.92 1011.00 1011.01 1010.96 1010.78 1010.85 1010.69 1010.56 1010.72 1010.76 1010.98 1011.14 1011.05 1010.53 1010.50 1010.70 1010.87 1010.83 1010.97 1010.94 1010.53 1010.35 1010.14 1009.93 1009.81 1009.60 1009.36 1009.46 1009.51 1009.62 1009.73 1009.93 1010.09 1010.36 1010.63 1010.77 1010.73 1011.04 1011.15 1011.47
1011.94 1011.28 1010.96 1010.90 1010.28 1009.96 1010.02 1009.89 1009.49 1009.38 1009.22 1009.35 1009.36 1009.58 1009.78 1009.74 1009.72 1010.05 1010.44 1010.61 1010.68 1010.81 1010.83 1010.48 1010.26 1010.08 1009.99 1009.81 1009.64 1009.27 1009.14 1009.28 1009.57 1009.68 1009.87 1010.11 1010.43 1010.61 1010.81 1011.03 1011.13 1011.40 1011.69
1012.70 1012.19 1011.24 1010.78 1010.58 1010.37 1010.35 1009.95 1009.12 1008.21 1008.27 1008.20 1008.37 1008.52 1008.73 1008.69 1009.04 1009.30 1009.81 1010.29 1010.65 1010.83 1010.39 1010.07 1009.91 1009.70 1009.50 1009.49 1009.37 1009.09 1008.82 1008.79 1009.10 1009.47 1009.54 1009.81 1010.26 1010.59 1010.78 1011.01 1011.24 1011.46 1011.76
1013.77 1013.11 1012.46 1011.63 1010.57 1010.17 1009.55 1009.03 1008.70 1008.59 1007.79 1007.49 1007.18 1007.45 1007.67 1007.80 1008.04 1008.28 1009.01 1009.94 1010.19 1010.16 1009.76 1009.40 1009.19 1009.09 1009.07 1009.03 1009.05 1008.96 1008.70 1008.78 1008.93 1009.28 1009.47 1009.56 1009.91 1010.33 1010.65 1010.77 1011.02 1011.23 1011.49
1014.91 1013.85 1013.10 1012.49 1011.41 1010.61 1009.71 1008.74 1008.04 1007.61 1007.46 1007.13 1006.54 1006.59 1006.55 1006.76 1007.16 1008.06 1008.69 1008.62 1008.82 1008.65 1008.47 1008.44 1008.32 1008.21 1008.33 1008.38 1008.34 1008.54 1008.39 1008.37 1008.67 1008.84 1009.07 1009.29 1009.55 1009.78 1010.30 1010.47 1010.48 1010.76 1011.21
1015.45 1014.48 1013.69 1012.86 1011.88 1011.11 1010.44 1009.64 1008.92 1007.91 1006.85 1006.23 1006.06 1005.99 1005.67 1006.35 1006.97 1007.02 1007.24 1007.21 1007.25 1007.33 1007.26 1007.12 1007.13 1007.22 1007.26 1007.51 1007.72 1007.83 1008.00 1008.10 1008.17 1008.40 1008.60 1008.73 1009.07 1009.36 1009.71 1010.00 1010.14 1010.57 1010.78
1015.96 1015.11 1014.46 1013.71 1012.89 1012.05 1011.27 1010.54 1009.80 1008.69 1007.97 1006.82 1005.48 1004.78 1004.70 1004.84 1004.41 1004.52 1004.82 1005.19 1005.23 1005.40 1005.70 1005.79 1005.82 1005.99 1006.15 1006.32 1006.61 1007.03 1007.21 1007.35 1007.63 1007.89 1008.17 1008.38 1008.62 1008.95 1009.10 1009.34 1009.44 1009.78 1010.17
1016.45 1015.77 1015.15 1014.49 1013.69 1012.84 1012.07 1011.21 1010.33 1009.33 1008.52 1007.49 1006.34 1005.58 1005.00 1003.63 1002.93 1002.80 1002.77 1002.79 1002.82 1003.09 1003.54 1003.96 1004.17 1004.36 1004.62 1004.94 1005.33 1005.75 1006.03 1006.24 1006.49 1006.95 1007.43 1007.58 1007.85 1008.18 1008.41 1008.76 1009.12 1009.44 1009.76
1016.60 1016.04 1015.44 1014.82 1014.19 1013.42 1012.59 1011.72 1010.69 1009.64 1008.66 1007.72 1006.87 1005.81 1004.57 1003.59 1003.14 1001.78 1001.14 1001.00 1001.08 1001.13 1001.69 1002.32 1002.62 1002.87 1003.18 1003.45 1003.73 1004.17 1004.64 1005.07 1005.24 1005.61 1006.24 1006.79 1007.12 1007.44 1007.80 1007.99 1008.26 1008.82 1009.33
1016.58 1016.06 1015.50 1014.93 1014.27 1013.50 1012.66 1011.78 1010.88 1009.88 1008.70 1007.55 1006.23 1005.27 1004.63 1003.74 1002.64 1001.87 1001.11 999.62 999.41 999.56 999.60 1000.26 1000.74 1001.06 1001.50 1002.11 1002.52 1002.77 1003.16 1003.55 1003.98 1004.49 1005.00 1005.73 1006.39 1006.61 1006.95 1007.33 1007.68 1008.04 1008.38
1016.18 1015.67 1015.12 1014.50 1013.86 1013.09 1012.30 1011.33 1010.35 1009.35 1008.22 1007.08 1005.51 1004.51 1003.68 1002.85 1001.91 1000.97 1000.41 999.75 998.14 997.94 998.15 998.20 998.80 999.29 999.78 1000.43 1001.12 1001.60 1001.86 1002.41 1002.85 1003.44 1004.13 1004.69 1005.28 1005.89 1006.31 1006.69 1007.13 1007.63 1007.88
1015.62 1015.09 1014.53 1013.90 1013.17 1012.30 1011.46 1010.50 1009.57 1008.40 1007.24 1006.06 1004.90 1003.65 1002.59 1001.65 1001.00 999.85 999.00 998.63 997.59 996.43 996.48 996.80 996.85 997.36 998.10 998.74 999.47 1000.31 1000.82 1001.39 1002.11 1002.46 1003.04 1003.88 1004.48 1005.10 1005.71 1006.11 1006.42 1006.85 1007.11
Thickness
5621 5613 5604 5597 5589 5580 5570 5563 5558 5547 5536 5516 5495 5476 5457 5439 5433 5428 5429 5435 5443 5460 5480 5493 5503 5511 5514 5516 5517 5517 5519 5520 5523 5526 5528 5533 5535 5538 5541 5544 5545 5547 5549
5619 5610 5600 5593 5584 5576 5570 5566 5559 5548 5531 5513 5496 5478 5460 5443 5434 5429 5432 5436 5445 5467 5483 5496 5505 5513 5516 5519 5519 5520 5522 5523 5522 5526 5527 5529 5532 5537 5539 5540 5542 5544 5546
5615 5608 5600 5591 5584 5577 5570 5565 5559 5544 5529 5517 5502 5487 5472 5457 5446 5442 5439 5447 5462 5478 5491 5500 5509 5515 5519 5521 5523 5524 5524 5525 5525 5525 5527 5529 5531 5534 5536 5537 5538 5541 5543
5612 5605 5597 5590 5585 5576 5570 5564 5554 5543 5530 5522 5512 5500 5490 5481 5473 5469 5466 5472 5481 5492 5500 5509 5516 5520 5524 5526 5527 5529 5528 5527 5525 5524 5526 5526 5528 5531 5530 5530 5532 5534 5536
5609 5606 5599 5593 5586 5577 5569 5562 5553 5544 5535 5528 5520 5513 5507 5501 5498 5493 5492 5493 5498 5504 5512 5518 5524 5530 5533 5534 5534 5533 5531 5529 5527 5526 5525 5525 5527 5528 5528 5528 5527 5528 5532
5609 5606 5601 5594 5586 5577 5569 5561 5554 5548 5541 5534 5528 5523 5518 5517 5516 5513 5510 5508 5511 5514 5521 5526 5531 5538 5539 5540 5540 5538 5536 5532 5529 5526 5524 5525 5527 5528 5528 5528 5527 5528 5528
5607 5604 5601 5593 5585 5577 5570 5563 5558 5551 5545 5540 5535 5532 5528 5526 5528 5526 5524 5522 5522 5524 5528 5530 5533 5536 5537 5537 5537 5536 5535 5535 5534 5530 5529 5529 5531 5534 5531 5529 5527 5529 5527
5605 5601 5599 5593 5585 5578 5570 5565 5561 5555 5549 5545 5543 5541 5538 5537 5536 5535 5535 5534 5535 5535 5535 5535 5535 5534 5534 5534 5534 5536 5536 5535 5535 5533 5533 5534 5534 5535 5533 5533 5530 5527 5526
5602 5599 5597 5593 5585 5578 5572 5567 5564 5559 5554 5551 5550 5547 5545 5545 5544 5541 5540 5541 5544 5543 5541 5538 5535 5534 5532 5533 5535 5534 5532 5533 5533 5532 5534 5535 5535 5536 5535 5533 5529 5528 5527
5602 5601 5598 5593 5587 5580 5575 5569 5565 5562 5558 5555 5554 5552 5550 5548 5549 5547 5543 5543 5545 5542 5539 5538 5538 5536 5533 5532 5535 5533 5532 5531 5533 5533 5533 5532 5532 5533 5534 5534 5530 5528 5526
5603 5599 5595 5591 5587 5584 5577 5571 5567 5564 5560 5556 5554 5552 5551 5550 5550 5548 5545 5545 5545 5541 5540 5542 5540 5537 5536 5533 5533 5533 5533 5532 5533 5532 5532 5531 5530 5530 5532 5532 5531 5531 5527
5597 5593 5592 5589 5585 5583 5576 5573 5567 5563 5559 5556 5553 5553 5552 5553 5550 5548 5546 5543 5544 5542 5541 5542 5542 5540 5538 5536 5535 5533 5534 5533 5532 5530 5530 5531 5530 5529 5529 5531 5530 5529 5529
5590 5588 5588 5587 5583 5580 5574 5570 5566 5564 5559 5557 5552 5551 5551 5552 5551 5549 5546 5546 5546 5542 5544 5543 5543 5542 5541 5541 5541 5539 5537 5534 5532 5531 5530 5529 5529 5529 5531 5529 5529 5529 5527
5587 5586 5585 5581 5580 5576 5572 5569 5565 5563 5559 5555 5552 5550 5550 5550 5549 5549 5547 5546 5544 5543 5541 5541 5543 5542 5542 5542 5543 5543 5540 5537 5535 5532 5529 5529 5527 5526 5528 5528 5527 5525 5525
5579 5580 5580 5579 5576 5574 5571 5570 5566 5566 5565 5560 5556 5553 5550 5547 5551 5550 5546 5544 5541 5537 5534 5538 5539 5541 5543 5544 5544 5545 5542 5539 5537 5534 5531 5529 5526 5525 5526 5527 5526 5527 5523
5567 5570 5569 5568 5571 5571 5568 5568 5566 5566 5565 5562 5560 5557 5554 5552 5550 5545 5542 5540 5538 5535 5534 5537 5538 5539 5541 5542 5543 5545 5547 5543 5539 5537 5534 5532 5530 5528 5528 5527 5528 5527 5527
5550 5552 5558 5558 5557 5556 5554 5555 5561 5565 5561 5560 5557 5555 5553 5553 5548 5543 5539 5536 5533 5530 5535 5537 5538 5538 5541 5541 5543 5547 5550 5548 5544 5540 5540 5537 5534 5531 5529 5530 5533 5534 5533
5526 5529 5534 5540 5546 5546 5549 5553 5552 5552 5558 5560 5557 5553 5551 5549 5546 5543 5536 5529 5530 5529 5532 5535 5537 5538 5539 5540 5541 5544 5547 5546 5546 5543 5542 5543 5540 5537 5535 5537 5537 5540 5539
5503 5509 5512 5514 5521 5527 5535 5540 5545 5548 5548 5550 5552 5547 5547 5545 5541 5533 5529 5532 5532 5535 5536 5537 5537 5538 5539 5540 5542 5542 5545 5547 5546 5545 5546 5545 5544 5545 5542 5543 5545 5543 5543
5482 5486 5490 5494 5499 5502 5505 5510 5516 5525 5536 5541 5542 5544 5542 5532 5531 5532 5528 5529 5530 5533 5535 5538 5540 5538 5539 5540 5540 5541 5544 5546 5546 5546 5547 5548 5548 5547 5547 5548 5550 5549 5548
5457 5461 5462 5464 5467 5471 5476 5481 5486 5493 5498 5512 5528 5535 5530 5531 5540 5541 5538 5532 5534 5535 5534 5535 5537 5539 5539 5540 5541 5540 5544 5547 5547 5546 5547 5548 5549 5550 5551 5553 5555 5553 5554
5428 5429 5430 5431 5435 5439 5443 5449 5456 5464 5469 5478 5490 5499 5502 5514 5529 5536 5537 5539 5539 5538 5537 5537 5538 5540 5542 5542 5542 5542 5544 5546 5548 5547 5547 5550 5551 5552 5555 5554 5554 5553 5556
5398 5397 5395 5395 5396 5399 5404 5410 5419 5429 5439 5447 5455 5468 5484 5492 5498 5519 5529 5533 5534 5537 5535 5533 5537 5539 5541 5544 5545 5545 5546 5547 5549 5550 5549 5548 5550 5552 5555 5556 5557 5556 5555
5366 5364 5362 5360 5360 5363 5365 5371 5377 5384 5397 5411 5426 5438 5448 5462 5475 5485 5500 5518 5525 5530 5534 5533 5535 5538 5540 5540 5542 5546 5548 5548 5549 5550 5551 5550 5548 5550 5554 5555 5557 5559 5559
5336 5333 5330 5328 5328 5329 5330 5334 5341 5348 5357 5368 5387 5402 5418 5433 5447 5463 5475 5489 5510 5519 5526 5533 5532 5536 5539 5539 5540 5543 5546 5547 5548 5547 5547 5549 5550 5548 5550 5554 5555 5556 5557
5309 5306 5303 5301 5302 5303 5304 5306 5310 5317 5324 5333 5343 5359 5378 5399 5417 5439 5455 5468 5487 5506 5515 5522 5530 5533 5534 5537 5537 5538 5539 5542 5543 5545 5544 5544 5545 5545 5545 5548 5552 5554 5557